Date String (YYYY-MM-DD hh:mm:ss) UTC,Instrument flags,Ambient pressure (hPa),Sample flow (lpm),Bypass flow (lpm),Sample temperature (°C),Ambient temperature (°C),ASC tube jacket temperature (°C),LED temperature (°C),Box temperature (°C),Sample RH (%),Span deviation,Mass concentration (μg/m³),Mass concentration (μg/m³),Mass concentration (μg/m³)
DateTimeUTC,F1_M11,P_M11,Q1_M11,Q2_M11,T1_M11,T2_M11,T3_M11,T4_M11,T5_M11,U1_M11,ZSPAN_M11,X2_M11,X0_M11,X1_M11
2023-05-21 02:00:00,,0834.8,4.99,0.00,29.8,28.4,00.0,38.1,31.4,24.1,0002.9,0006.73,0011.40,0006.27
2023-05-21 02:01:00,,0834.8,5.00,0.00,29.9,28.4,00.0,38.2,31.4,23.9,0003.0,0006.74,0011.41,0006.28
2023-05-21 02:02:00,,0835.0,5.01,0.00,29.9,28.4,00.0,38.2,31.5,23.9,0002.9,0006.77,0011.28,0006.29
2023-05-21 02:03:00,,0835.3,5.00,0.00,29.9,28.5,00.0,38.2,31.5,24.0,0002.8,0006.76,0010.60,0006.30
2023-05-21 02:04:00,,0835.4,5.00,0.00,29.9,28.5,00.0,38.2,31.5,24.0,0003.2,0006.76,0011.10,0006.29
2023-05-21 02:05:00,,0835.3,5.01,0.00,29.9,28.5,00.0,38.2,31.5,24.1,0003.4,0006.76,0010.86,0006.28
2023-05-21 02:06:00,,0835.1,5.01,0.00,29.9,28.5,00.0,38.2,31.5,24.1,0003.5,0006.76,0010.78,0006.30
2023-05-21 02:07:00,,0835.3,5.00,0.00,29.9,28.5,00.0,38.2,31.5,24.0,0003.6,0006.78,0010.73,0006.33
2023-05-21 02:08:00,,0835.3,4.99,0.00,29.9,28.5,00.0,38.2,31.5,24.0,0003.7,0006.77,0010.71,0006.33
2023-05-21 02:09:00,,0835.1,5.00,0.00,30.0,28.5,00.0,38.3,31.6,24.0,0003.9,0006.74,0010.79,0006.33
2023-05-21 02:10:00,,0835.2,5.00,0.00,30.0,28.6,00.0,38.3,31.6,24.1,0004.1,0006.75,0010.81,0006.34
2023-05-21 02:11:00,,0835.3,5.00,0.00,30.0,28.6,00.0,38.3,31.6,24.1,0004.1,0006.74,0010.79,0006.33
2023-05-21 02:12:00,,0835.4,4.99,0.00,30.0,27.6,00.0,38.2,31.4,24.1,0004.1,0006.72,0010.78,0006.31
2023-05-21 02:13:00,,0835.2,5.00,0.00,29.9,25.8,00.0,38.1,31.1,24.3,0004.0,0006.67,0010.66,0006.30
2023-05-21 02:14:00,,0834.7,5.01,0.00,29.8,25.3,00.0,38.0,31.0,24.4,0003.9,0006.66,0010.57,0006.27
2023-05-21 02:15:00,,0834.8,5.01,0.00,29.7,25.4,00.0,38.0,30.8,24.7,0003.6,0006.66,0010.11,0006.26
2023-05-21 02:16:00,,0834.8,5.00,0.00,29.6,25.8,00.0,38.0,30.9,24.8,0003.6,0006.65,0009.94,0006.26
2023-05-21 02:17:00,,0834.8,4.99,0.00,29.5,26.1,00.0,38.0,30.9,24.9,0003.4,0006.65,0009.94,0006.25
2023-05-21 02:18:00,,0834.9,5.00,0.00,29.5,26.5,00.0,38.0,30.9,24.9,0003.3,0006.62,0010.29,0006.21
2023-05-21 02:19:00,,0835.3,5.00,0.00,29.5,26.8,00.0,38.0,31.0,24.9,0003.4,0006.62,0010.38,0006.20
2023-05-21 02:20:00,,0835.3,5.01,0.00,29.5,27.0,00.0,37.9,31.0,24.9,0003.2,0006.57,0010.18,0006.19
2023-05-21 02:21:00,,0835.4,5.01,0.00,29.5,27.2,00.0,37.9,31.0,24.9,0003.2,0006.54,0010.11,0006.17
2023-05-21 02:22:00,,0835.3,5.00,0.00,29.5,27.4,00.0,37.9,31.1,24.9,0003.2,0006.57,0010.16,0006.19
2023-05-21 02:23:00,,0835.2,5.00,0.00,29.5,27.5,00.0,37.9,31.1,24.9,0003.2,0006.56,0010.14,0006.19
2023-05-21 02:24:00,,0834.9,5.01,0.00,29.5,27.7,00.0,37.9,31.1,24.9,0003.4,0006.56,0010.13,0006.18
2023-05-21 02:25:00,,0834.8,5.00,0.00,29.5,27.7,00.0,37.9,31.1,24.9,0003.5,0006.54,0010.14,0006.19
2023-05-21 02:26:00,,0834.8,5.00,0.00,29.5,27.8,00.0,37.9,31.1,24.8,0003.5,0006.59,0010.24,0006.24
2023-05-21 02:27:00,,0834.7,5.00,0.00,29.5,27.9,00.0,37.9,31.1,24.6,0003.4,0006.66,0010.33,0006.32
2023-05-21 02:28:00,,0834.7,4.99,0.00,29.5,27.9,00.0,37.9,31.1,24.5,0003.7,0006.73,0010.40,0006.41
2023-05-21 02:29:00,,0834.8,5.00,0.00,29.5,28.0,00.0,37.9,31.2,24.5,0003.7,0006.80,0010.52,0006.48
2023-05-21 02:30:00,,0834.8,5.00,0.00,29.6,28.0,00.0,37.9,31.2,24.3,0003.4,0006.84,0010.46,0006.54
2023-05-21 02:31:00,,0834.8,5.00,0.00,29.6,28.0,00.0,37.9,31.2,24.2,0003.6,0006.96,0010.60,0006.64
2023-05-21 02:32:00,,0834.8,5.01,0.00,29.6,28.0,00.0,37.9,31.2,24.2,0003.7,0007.04,0010.71,0006.72
2023-05-21 02:33:00,,0834.7,4.98,0.00,29.6,28.1,00.0,37.9,31.2,24.1,0003.7,0007.14,0010.86,0006.82
2023-05-21 02:34:00,,0834.7,5.00,0.00,29.6,28.1,00.0,37.9,31.2,23.8,0003.7,0007.28,0012.01,0006.94
2023-05-21 02:35:00,,0835.0,5.01,0.00,29.6,28.1,00.0,37.9,31.2,23.7,0003.8,0007.42,0012.13,0007.10
2023-05-21 02:36:00,,0834.7,5.01,0.00,29.6,28.1,00.0,38.0,31.3,23.5,0003.8,0007.62,0012.42,0007.25
2023-05-21 02:37:00,,0834.8,5.01,0.00,29.6,28.2,00.0,38.0,31.3,23.4,0003.8,0007.77,0012.52,0007.39
2023-05-21 02:38:00,,0834.7,5.00,0.00,29.7,28.2,00.0,38.0,31.3,23.5,0003.9,0007.91,0012.73,0007.51
2023-05-21 02:39:00,,0834.7,4.97,0.00,29.7,28.2,00.0,38.0,31.3,23.3,0004.0,0008.05,0012.90,0007.64
2023-05-21 02:40:00,,0834.8,4.99,0.00,29.7,28.2,00.0,38.0,31.3,23.2,0004.0,0008.21,0012.73,0007.79
2023-05-21 02:41:00,,0834.8,5.01,0.00,29.7,28.2,00.0,38.0,31.3,23.4,0004.0,0008.38,0012.98,0007.95
2023-05-21 02:42:00,,0834.7,5.01,0.00,29.7,28.2,00.0,38.0,31.3,23.5,0003.9,0008.53,0013.75,0008.07
2023-05-21 02:43:00,,0834.8,5.00,0.00,29.7,28.2,00.0,38.0,31.3,23.4,0003.9,0008.72,0013.98,0008.23
2023-05-21 02:44:00,,0834.9,4.99,0.00,29.7,28.2,00.0,38.0,31.3,23.6,0003.7,0008.83,0014.11,0008.35
2023-05-21 02:45:00,,0834.8,4.99,0.00,29.7,28.2,00.0,38.0,31.3,23.7,0003.7,0008.90,0013.34,0008.43
2023-05-21 02:46:00,,0834.8,5.00,0.00,29.7,28.2,00.0,38.0,31.3,23.4,0003.6,0008.98,0013.37,0008.50
2023-05-21 02:47:00,,0834.8,5.01,0.00,29.7,28.2,00.0,38.1,31.3,23.3,0003.5,0009.01,0013.69,0008.57
2023-05-21 02:48:00,,0834.8,5.01,0.00,29.7,28.2,00.0,38.1,31.3,23.6,0003.4,0009.07,0014.03,0008.65
2023-05-21 02:49:00,,0835.2,4.99,0.00,29.7,28.2,00.0,38.1,31.3,23.6,0003.4,0009.11,0014.05,0008.70
2023-05-21 02:50:00,,0835.2,4.98,0.00,29.7,28.2,00.0,38.1,31.3,23.9,0003.2,0009.16,0014.13,0008.74
2023-05-21 02:51:00,,0835.4,5.00,0.00,29.7,28.2,00.0,38.1,31.3,23.7,0003.1,0009.21,0014.22,0008.75
2023-05-21 02:52:00,,0835.3,5.01,0.00,29.8,28.2,00.0,38.1,31.3,23.7,0003.1,0009.22,0014.07,0008.76
2023-05-21 02:53:00,,0835.3,5.01,0.00,29.8,28.2,00.0,38.1,31.4,23.7,0003.2,0009.26,0013.61,0008.80
2023-05-21 02:54:00,,0835.3,5.01,0.00,29.8,28.2,00.0,38.1,31.4,23.6,0003.1,0009.26,0013.57,0008.81
2023-05-21 02:55:00,,0834.9,5.00,0.00,29.8,28.2,00.0,38.1,31.3,23.8,0003.1,0009.29,0013.60,0008.85
2023-05-21 02:56:00,,0835.1,5.00,0.00,29.8,28.2,00.0,38.1,31.4,23.8,0003.1,0009.35,0013.64,0008.90
2023-05-21 02:57:00,,0834.9,5.00,0.00,29.8,28.2,00.0,38.1,31.4,23.6,0003.1,0009.36,0013.66,0008.93
2023-05-21 02:58:00,,0834.7,5.00,0.00,29.8,28.2,00.0,38.1,31.4,23.7,0003.2,0009.39,0013.63,0008.96
2023-05-21 02:59:00,,0834.8,4.99,0.00,29.8,28.2,00.0,38.1,31.4,23.7,0003.2,0009.39,0013.75,0008.96
